Time,TemperatureF,DewpointF,PressureIn,WindDirection,WindDirectionDegrees,WindSpeedMPH,WindSpeedGustMPH,Humidity,HourlyPrecipIn,Conditions,Clouds,dailyrainin,SoftwareType,DateUTC
2013-10-05 00:00:00,67.5,65.0,29.97,NNE,20,9.0,17.0,90,0.00,,,0.01,weatherlink.com 1.10,2013-10-05 04:00:00,
2013-10-05 00:15:00,67.4,65.0,29.97,NNE,30,11.0,16.0,90,0.00,,,0.00,weatherlink.com 1.10,2013-10-05 04:15:00,
2013-10-05 00:30:00,67.2,64.0,29.98,NE,37,9.0,14.0,90,0.00,,,0.00,weatherlink.com 1.10,2013-10-05 04:30:00,
2013-10-05 00:45:00,66.9,64.0,29.98,NE,48,6.0,14.0,89,0.00,,,0.00,weatherlink.com 1.10,2013-10-05 04:45:00,
2013-10-05 01:00:00,66.8,64.0,29.98,NNE,20,7.0,13.0,90,0.00,,,0.00,weatherlink.com 1.10,2013-10-05 05:00:00,
2013-10-05 01:15:00,66.5,63.0,29.98,NE,37,9.0,13.0,89,0.00,,,0.00,weatherlink.com 1.10,2013-10-05 05:15:00,
2013-10-05 01:30:00,66.4,64.0,29.99,NNE,21,10.0,12.0,90,0.00,,,0.00,weatherlink.com 1.10,2013-10-05 05:30:00,
2013-10-05 01:45:00,66.3,63.0,29.99,NE,37,11.0,13.0,90,0.00,,,0.00,weatherlink.com 1.10,2013-10-05 05:45:00,
2013-10-05 02:00:00,66.2,63.0,29.99,NNE,30,8.0,13.0,90,0.00,,,0.00,weatherlink.com 1.10,2013-10-05 06:00:00,
2013-10-05 02:16:00,65.9,63.0,29.98,NE,54,12.0,13.0,90,0.00,,,0.00,weatherlink.com 1.10,2013-10-05 06:16:00,
2013-10-05 02:31:00,65.9,63.0,29.98,NE,37,8.0,14.0,91,0.00,,,0.00,weatherlink.com 1.10,2013-10-05 06:31:00,
2013-10-05 02:46:00,65.7,63.0,29.98,NNE,15,5.0,12.0,91,0.00,,,0.00,weatherlink.com 1.10,2013-10-05 06:46:00,
2013-10-05 03:01:00,65.5,63.0,29.99,NNE,23,6.0,14.0,91,0.00,,,0.00,weatherlink.com 1.10,2013-10-05 07:01:00,
2013-10-05 03:16:00,65.2,63.0,29.98,NNE,32,9.0,14.0,91,0.00,,,0.00,weatherlink.com 1.10,2013-10-05 07:16:00,
2013-10-05 03:31:00,65.2,63.0,29.99,NNE,24,6.0,9.0,92,0.00,,,0.00,weatherlink.com 1.10,2013-10-05 07:31:00,
2013-10-05 03:46:00,65.0,63.0,29.99,NNE,32,4.0,9.0,92,0.00,,,0.00,weatherlink.com 1.10,2013-10-05 07:46:00,
2013-10-05 04:01:00,65.0,63.0,30.00,NNE,31,3.0,9.0,92,0.00,,,0.00,weatherlink.com 1.10,2013-10-05 08:01:00,
2013-10-05 04:16:00,64.9,63.0,30.00,North,355,3.0,9.0,92,0.00,,,0.00,weatherlink.com 1.10,2013-10-05 08:16:00,
2013-10-05 04:31:00,64.9,63.0,29.99,NNE,12,4.0,8.0,92,0.00,,,0.00,weatherlink.com 1.10,2013-10-05 08:31:00,
2013-10-05 04:46:00,64.8,63.0,30.00,NNE,23,6.0,10.0,92,0.00,,,0.00,weatherlink.com 1.10,2013-10-05 08:46:00,
2013-10-05 05:01:00,64.7,62.0,30.00,NNE,12,3.0,8.0,92,0.00,,,0.00,weatherlink.com 1.10,2013-10-05 09:01:00,
2013-10-05 05:16:00,64.6,62.0,30.00,NNE,18,4.0,8.0,91,0.00,,,0.00,weatherlink.com 1.10,2013-10-05 09:16:00,
2013-10-05 05:31:00,64.6,62.0,30.00,NNE,32,6.0,9.0,92,0.00,,,0.00,weatherlink.com 1.10,2013-10-05 09:31:00,
2013-10-05 05:46:00,64.5,62.0,30.00,NNE,21,3.0,8.0,92,0.00,,,0.00,weatherlink.com 1.10,2013-10-05 09:46:00,
2013-10-05 06:01:00,64.4,62.0,30.00,North,353,7.0,10.0,91,0.00,,,0.00,weatherlink.com 1.10,2013-10-05 10:01:00,
2013-10-05 06:16:00,64.7,62.0,30.00,NE,34,9.0,11.0,91,0.00,,,0.00,weatherlink.com 1.10,2013-10-05 10:16:00,
2013-10-05 06:31:00,64.8,62.0,30.01,NE,48,4.0,10.0,90,0.00,,,0.00,weatherlink.com 1.10,2013-10-05 10:31:00,
2013-10-05 06:46:00,64.8,62.0,30.01,NNE,17,8.0,9.0,90,0.00,,,0.00,weatherlink.com 1.10,2013-10-05 10:46:00,
2013-10-05 07:01:00,64.6,62.0,30.01,North,10,7.0,11.0,91,0.00,,,0.00,weatherlink.com 1.10,2013-10-05 11:01:00,
2013-10-05 07:16:00,64.6,62.0,30.01,NE,44,4.0,8.0,91,0.00,,,0.00,weatherlink.com 1.10,2013-10-05 11:16:00,
2013-10-05 07:31:00,64.8,62.0,30.01,NE,46,6.0,8.0,90,0.00,,,0.00,weatherlink.com 1.10,2013-10-05 11:31:00,
2013-10-05 07:46:00,64.7,62.0,30.02,NE,37,8.0,9.0,91,0.00,,,0.00,weatherlink.com 1.10,2013-10-05 11:46:00,
2013-10-05 08:01:00,64.7,62.0,30.02,North,2,7.0,10.0,91,0.00,,,0.00,weatherlink.com 1.10,2013-10-05 12:01:00,
2013-10-05 08:16:00,64.5,62.0,30.03,NNE,13,6.0,10.0,91,0.00,,,0.00,weatherlink.com 1.10,2013-10-05 12:16:00,
2013-10-05 08:31:00,64.5,62.0,30.04,NNE,18,5.0,8.0,91,0.00,,,0.00,weatherlink.com 1.10,2013-10-05 12:31:00,
2013-10-05 08:46:00,64.3,62.0,30.04,NNE,32,6.0,12.0,92,0.00,,,0.00,weatherlink.com 1.10,2013-10-05 12:46:00,
2013-10-05 09:01:00,64.6,62.0,30.05,North,359,4.0,7.0,91,0.00,,,0.00,weatherlink.com 1.10,2013-10-05 13:01:00,
2013-10-05 09:16:00,64.7,62.0,30.05,NNE,19,4.0,8.0,91,0.00,,,0.00,weatherlink.com 1.10,2013-10-05 13:16:00,
2013-10-05 09:31:00,64.9,62.0,30.05,NNE,26,6.0,6.0,91,0.00,,,0.00,weatherlink.com 1.10,2013-10-05 13:31:00,
2013-10-05 09:46:00,65.1,62.0,30.05,NNE,31,3.0,8.0,90,0.00,,,0.00,weatherlink.com 1.10,2013-10-05 13:46:00,
2013-10-05 10:01:00,65.2,62.0,30.05,NE,46,6.0,8.0,90,0.00,,,0.00,weatherlink.com 1.10,2013-10-05 14:01:00,
2013-10-05 10:16:00,65.5,63.0,30.05,NNW,343,1.0,7.0,90,0.00,,,0.00,weatherlink.com 1.10,2013-10-05 14:16:00,
2013-10-05 10:31:00,65.5,62.0,30.05,NNE,30,2.0,5.0,89,0.00,,,0.00,weatherlink.com 1.10,2013-10-05 14:31:00,
2013-10-05 10:46:00,65.9,63.0,30.05,NE,41,2.0,6.0,89,0.00,,,0.00,weatherlink.com 1.10,2013-10-05 14:46:00,
2013-10-05 11:01:00,66.2,63.0,30.05,NE,56,7.0,7.0,88,0.00,,,0.00,weatherlink.com 1.10,2013-10-05 15:01:00,
2013-10-05 11:16:00,66.3,62.0,30.05,NE,37,5.0,8.0,87,0.00,,,0.00,weatherlink.com 1.10,2013-10-05 15:16:00,
2013-10-05 11:31:00,66.5,63.0,30.05,NNE,29,5.0,8.0,87,0.00,,,0.00,weatherlink.com 1.10,2013-10-05 15:31:00,
2013-10-05 11:46:00,66.7,62.0,30.04,NE,48,2.0,6.0,86,0.00,,,0.00,weatherlink.com 1.10,2013-10-05 15:46:00,
2013-10-05 12:01:00,67.1,63.0,30.04,NNE,33,5.0,7.0,86,0.00,,,0.00,weatherlink.com 1.10,2013-10-05 16:01:00,
2013-10-05 12:16:00,67.0,63.0,30.04,ENE,65,4.0,7.0,86,0.00,,,0.00,weatherlink.com 1.10,2013-10-05 16:16:00,
2013-10-05 12:31:00,67.3,63.0,30.04,NE,56,4.0,7.0,86,0.00,,,0.00,weatherlink.com 1.10,2013-10-05 16:31:00,
2013-10-05 12:46:00,67.3,63.0,30.04,NE,53,5.0,7.0,86,0.00,,,0.00,weatherlink.com 1.10,2013-10-05 16:46:00,
2013-10-05 13:02:00,67.2,63.0,30.03,ENE,73,3.0,6.0,86,0.00,,,0.00,weatherlink.com 1.10,2013-10-05 17:02:00,
2013-10-05 13:16:00,67.6,63.0,30.02,East,86,2.0,6.0,85,0.00,,,0.00,weatherlink.com 1.10,2013-10-05 17:16:00,
2013-10-05 13:31:00,68.2,64.0,30.02,NE,46,2.0,7.0,85,0.00,,,0.00,weatherlink.com 1.10,2013-10-05 17:31:00,
2013-10-05 13:46:00,68.3,63.0,30.01,ESE,103,3.0,6.0,84,0.00,,,0.00,weatherlink.com 1.10,2013-10-05 17:46:00,
2013-10-05 14:01:00,68.6,64.0,30.01,SSE,153,1.0,8.0,84,0.00,,,0.00,weatherlink.com 1.10,2013-10-05 18:01:00,
2013-10-05 14:16:00,69.0,64.0,30.00,ENE,60,4.0,7.0,84,0.00,,,0.00,weatherlink.com 1.10,2013-10-05 18:16:00,
2013-10-05 14:31:00,69.2,64.0,30.00,NE,56,6.0,9.0,83,0.00,,,0.00,weatherlink.com 1.10,2013-10-05 18:31:00,
2013-10-05 14:47:00,69.4,64.0,29.99,NE,34,4.0,8.0,83,0.00,,,0.00,weatherlink.com 1.10,2013-10-05 18:47:00,
2013-10-05 15:02:00,69.7,64.0,29.99,East,79,4.0,7.0,82,0.00,,,0.00,weatherlink.com 1.10,2013-10-05 19:02:00,
2013-10-05 15:17:00,70.0,64.0,30.00,NE,41,4.0,5.0,82,0.00,,,0.00,weatherlink.com 1.10,2013-10-05 19:17:00,
2013-10-05 15:32:00,70.2,65.0,30.00,NNE,22,3.0,6.0,82,0.00,,,0.00,weatherlink.com 1.10,2013-10-05 19:32:00,
2013-10-05 15:47:00,70.4,64.0,30.00,NE,42,5.0,6.0,81,0.00,,,0.00,weatherlink.com 1.10,2013-10-05 19:47:00,
2013-10-05 16:02:00,70.3,64.0,30.00,NNE,21,3.0,5.0,81,0.00,,,0.00,weatherlink.com 1.10,2013-10-05 20:02:00,
2013-10-05 16:17:00,70.7,64.0,29.99,NE,37,5.0,5.0,80,0.00,,,0.00,weatherlink.com 1.10,2013-10-05 20:17:00,
2013-10-05 16:32:00,71.3,65.0,29.99,NE,42,2.0,5.0,80,0.00,,,0.00,weatherlink.com 1.10,2013-10-05 20:32:00,
2013-10-05 16:47:00,71.1,65.0,29.99,NE,47,3.0,5.0,81,0.00,,,0.00,weatherlink.com 1.10,2013-10-05 20:47:00,
2013-10-05 17:02:00,70.9,65.0,29.99,NNE,28,5.0,6.0,81,0.00,,,0.00,weatherlink.com 1.10,2013-10-05 21:02:00,
2013-10-05 17:17:00,71.2,66.0,30.00,NNE,15,3.0,6.0,82,0.00,,,0.00,weatherlink.com 1.10,2013-10-05 21:17:00,
2013-10-05 17:32:00,71.0,65.0,30.00,NE,53,5.0,7.0,82,0.00,,,0.00,weatherlink.com 1.10,2013-10-05 21:32:00,
2013-10-05 17:47:00,70.5,66.0,30.00,NE,45,3.0,6.0,84,0.00,,,0.00,weatherlink.com 1.10,2013-10-05 21:47:00,
2013-10-05 18:02:00,70.1,66.0,30.00,NNE,32,2.0,5.0,86,0.00,,,0.00,weatherlink.com 1.10,2013-10-05 22:02:00,
2013-10-05 18:17:00,69.9,66.0,30.00,NNE,30,1.0,4.0,86,0.00,,,0.00,weatherlink.com 1.10,2013-10-05 22:17:00,
2013-10-05 18:32:00,69.7,66.0,30.00,SE,130,1.0,5.0,87,0.00,,,0.00,weatherlink.com 1.10,2013-10-05 22:32:00,
2013-10-05 18:47:00,69.7,65.0,30.00,SE,139,3.0,5.0,86,0.00,,,0.00,weatherlink.com 1.10,2013-10-05 22:47:00,
2013-10-05 19:02:00,69.5,65.0,30.00,SE,132,3.0,7.0,86,0.00,,,0.00,weatherlink.com 1.10,2013-10-05 23:02:00,
2013-10-05 19:17:00,69.0,65.0,30.00,SE,145,4.0,6.0,87,0.00,,,0.00,weatherlink.com 1.10,2013-10-05 23:17:00,
2013-10-05 19:32:00,68.5,65.0,30.01,SE,142,5.0,6.0,88,0.00,,,0.00,weatherlink.com 1.10,2013-10-05 23:32:00,
2013-10-05 19:47:00,68.0,65.0,30.01,SE,145,3.0,6.0,89,0.00,,,0.00,weatherlink.com 1.10,2013-10-05 23:47:00,
2013-10-05 20:02:00,67.6,65.0,30.01,SSE,165,3.0,6.0,90,0.00,,,0.00,weatherlink.com 1.10,2013-10-06 00:02:00,
2013-10-05 20:17:00,67.3,64.0,30.01,SE,131,4.0,4.0,90,0.00,,,0.00,weatherlink.com 1.10,2013-10-06 00:17:00,
2013-10-05 20:32:00,67.1,64.0,30.01,SE,136,2.0,7.0,90,0.00,,,0.00,weatherlink.com 1.10,2013-10-06 00:32:00,
2013-10-05 20:47:00,66.9,64.0,30.02,East,100,2.0,6.0,91,0.00,,,0.00,weatherlink.com 1.10,2013-10-06 00:47:00,
2013-10-05 21:02:00,67.0,64.0,30.03,SSE,158,5.0,7.0,91,0.00,,,0.00,weatherlink.com 1.10,2013-10-06 01:02:00,
2013-10-05 21:17:00,67.1,65.0,30.03,South,187,4.0,7.0,91,0.00,,,0.00,weatherlink.com 1.10,2013-10-06 01:17:00,
2013-10-05 21:32:00,67.0,64.0,30.04,South,172,3.0,7.0,91,0.00,,,0.00,weatherlink.com 1.10,2013-10-06 01:32:00,
2013-10-05 21:47:00,67.0,64.0,30.03,SE,131,2.0,5.0,91,0.00,,,0.00,weatherlink.com 1.10,2013-10-06 01:47:00,
2013-10-05 22:02:00,67.0,64.0,30.03,SSE,162,2.0,6.0,91,0.00,,,0.00,weatherlink.com 1.10,2013-10-06 02:02:00,
2013-10-05 22:17:00,66.9,64.0,30.04,South,186,1.0,6.0,91,0.00,,,0.00,weatherlink.com 1.10,2013-10-06 02:17:00,
2013-10-05 22:32:00,66.8,64.0,30.04,South,171,4.0,8.0,91,0.00,,,0.00,weatherlink.com 1.10,2013-10-06 02:32:00,
2013-10-05 22:47:00,66.7,64.0,30.04,East,99,5.0,6.0,91,0.00,,,0.00,weatherlink.com 1.10,2013-10-06 02:47:00,
2013-10-05 23:02:00,66.6,64.0,30.04,South,177,2.0,5.0,91,0.00,,,0.00,weatherlink.com 1.10,2013-10-06 03:02:00,
2013-10-05 23:17:00,66.5,64.0,30.04,South,170,6.0,8.0,91,0.00,,,0.00,weatherlink.com 1.10,2013-10-06 03:17:00,
2013-10-05 23:32:00,66.4,64.0,30.04,SSE,158,5.0,7.0,92,0.00,,,0.00,weatherlink.com 1.10,2013-10-06 03:32:00,
2013-10-05 23:47:00,66.3,64.0,30.04,SE,135,3.0,7.0,92,0.00,,,0.00,weatherlink.com 1.10,2013-10-06 03:47:00,